TimeCDT,TemperatureF,Dew PointF,Humidity,Sea Level PressureIn,VisibilityMPH,Wind Direction,Wind SpeedMPH,Gust SpeedMPH,PrecipitationIn,Events,Conditions,WindDirDegrees,DateUTC
12:53 AM,64.0,48.0,56,29.66,10.0,SSE,10.4,17.3,N/A,,Clear,150,2013-09-23 05:53:00
1:53 AM,63.0,48.0,58,29.64,10.0,SSE,11.5,-,N/A,,Clear,160,2013-09-23 06:53:00
2:53 AM,63.0,48.0,58,29.61,10.0,South,15.0,24.2,N/A,,Clear,170,2013-09-23 07:53:00
3:53 AM,62.1,48.0,60,29.60,10.0,South,13.8,21.9,N/A,,Clear,170,2013-09-23 08:53:00
4:53 AM,61.0,46.9,60,29.60,10.0,SSE,15.0,23.0,N/A,,Clear,160,2013-09-23 09:53:00
5:53 AM,60.1,46.9,62,29.59,10.0,SSE,13.8,23.0,N/A,,Clear,160,2013-09-23 10:53:00
6:53 AM,57.9,46.9,67,29.58,10.0,SSE,9.2,16.1,N/A,,Clear,150,2013-09-23 11:53:00
7:53 AM,60.1,46.9,62,29.61,10.0,South,13.8,-,N/A,,Scattered Clouds,190,2013-09-23 12:53:00
8:53 AM,59.0,48.9,69,29.60,10.0,South,11.5,17.3,0.00,,Overcast,170,2013-09-23 13:53:00
9:53 AM,61.0,50.0,67,29.57,10.0,SSE,16.1,26.5,0.00,,Mostly Cloudy,150,2013-09-23 14:53:00
10:53 AM,66.9,50.0,54,29.55,10.0,SSE,23.0,33.4,N/A,,Clear,160,2013-09-23 15:53:00
11:53 AM,73.9,46.9,38,29.52,10.0,South,21.9,40.3,N/A,,Clear,170,2013-09-23 16:53:00
12:53 PM,77.0,46.9,34,29.48,10.0,South,28.8,41.4,N/A,,Clear,170,2013-09-23 17:53:00
1:53 PM,79.0,45.0,30,29.46,10.0,South,31.1,46.0,N/A,,Partly Cloudy,190,2013-09-23 18:53:00
2:53 PM,77.0,46.0,33,29.45,10.0,SSW,18.4,41.4,N/A,,Mostly Cloudy,200,2013-09-23 19:53:00
3:53 PM,77.0,48.0,36,29.47,10.0,SSW,16.1,28.8,N/A,,Overcast,210,2013-09-23 20:53:00
4:53 PM,77.0,48.0,36,29.50,10.0,WNW,16.1,27.6,N/A,,Scattered Clouds,290,2013-09-23 21:53:00
5:53 PM,73.0,48.9,42,29.56,10.0,WNW,16.1,25.3,N/A,,Clear,290,2013-09-23 22:53:00
6:53 PM,71.1,48.9,45,29.61,10.0,WNW,16.1,24.2,N/A,,Clear,290,2013-09-23 23:53:00
7:53 PM,66.0,52.0,60,29.67,10.0,WNW,13.8,21.9,N/A,,Clear,290,2013-09-24 00:53:00
8:53 PM,62.1,51.1,67,29.70,10.0,West,9.2,-,N/A,,Clear,270,2013-09-24 01:53:00
9:53 PM,62.1,51.1,67,29.73,10.0,West,15.0,20.7,N/A,,Clear,280,2013-09-24 02:53:00
10:53 PM,61.0,51.1,70,29.76,10.0,WNW,13.8,24.2,N/A,,Clear,300,2013-09-24 03:53:00
11:53 PM,60.1,51.1,72,29.78,10.0,WNW,16.1,24.2,N/A,,Partly Cloudy,300,2013-09-24 04:53:00